Total_Precipitation_Accumulation
0.00 0.00 0.00 0.00 0.00 0.00 0.00 0.00 0.00 0.00 0.00 0.00 0.00 0.00 0.01 0.02 0.02 0.04 0.01 0.01 0.01 0.01 0.00 0.00 0.00 0.00 0.00 0.00 0.00 0.00 0.00 0.00 0.00 0.00 0.00 0.00 0.00 0.00 0.00 0.00 0.00 0.00 0.00
0.00 0.00 0.00 0.00 0.00 0.00 0.00 0.00 0.00 0.00 0.00 0.00 0.00 0.00 0.00 0.00 0.00 0.00 0.00 0.00 0.00 0.00 0.00 0.00 0.00 0.00 0.00 0.00 0.00 0.00 0.00 0.00 0.00 0.00 0.00 0.00 0.00 0.00 0.00 0.00 0.00 0.00 0.00
0.00 0.00 0.00 0.00 0.00 0.00 0.00 0.00 0.00 0.00 0.00 0.00 0.00 0.00 0.00 0.00 0.00 0.00 0.00 0.00 0.00 0.00 0.00 0.00 0.00 0.00 0.00 0.00 0.00 0.00 0.00 0.00 0.00 0.00 0.00 0.00 0.00 0.00 0.00 0.00 0.00 0.00 0.00
0.00 0.00 0.00 0.00 0.00 0.00 0.00 0.00 0.00 0.00 0.00 0.00 0.00 0.00 0.00 0.00 0.00 0.00 0.00 0.00 0.00 0.00 0.00 0.00 0.00 0.00 0.00 0.00 0.00 0.00 0.00 0.00 0.00 0.00 0.00 0.00 0.00 0.00 0.00 0.00 0.00 0.00 0.00
0.01 0.00 0.00 0.00 0.00 0.00 0.00 0.00 0.00 0.00 0.00 0.00 0.00 0.00 0.00 0.00 0.00 0.00 0.00 0.00 0.00 0.00 0.00 0.00 0.00 0.00 0.00 0.00 0.00 0.00 0.00 0.00 0.00 0.00 0.00 0.00 0.00 0.00 0.00 0.00 0.00 0.00 0.00
0.01 0.01 0.01 0.00 0.00 0.00 0.00 0.00 0.00 0.00 0.00 0.00 0.00 0.00 0.00 0.00 0.00 0.00 0.00 0.00 0.00 0.00 0.00 0.00 0.00 0.00 0.00 0.00 0.00 0.00 0.00 0.00 0.00 0.00 0.00 0.00 0.00 0.00 0.00 0.00 0.00 0.00 0.00
0.01 0.02 0.02 0.01 0.00 0.00 0.00 0.00 0.00 0.00 0.00 0.00 0.00 0.00 0.00 0.00 0.00 0.00 0.00 0.00 0.00 0.00 0.00 0.00 0.00 0.00 0.00 0.00 0.00 0.00 0.00 0.00 0.00 0.00 0.00 0.00 0.00 0.00 0.00 0.00 0.00 0.01 0.01
0.02 0.00 0.00 0.01 0.01 0.02 0.00 0.00 0.00 0.00 0.00 0.00 0.00 0.00 0.00 0.00 0.00 0.00 0.00 0.00 0.00 0.00 0.00 0.00 0.00 0.00 0.00 0.00 0.00 0.00 0.00 0.00 0.00 0.00 0.00 0.00 0.00 0.00 0.00 0.02 0.03 0.02 0.01
0.00 0.04 0.01 0.00 0.00 0.00 0.00 0.02 0.02 0.00 0.00 0.00 0.00 0.00 0.00 0.00 0.00 0.00 0.00 0.00 0.00 0.00 0.00 0.00 0.00 0.00 0.00 0.00 0.00 0.00 0.00 0.00 0.00 0.00 0.00 0.00 0.00 0.00 0.00 0.00 0.00 0.01 0.01
0.07 0.12 0.09 0.04 0.05 0.03 0.03 0.05 0.07 0.02 0.00 0.00 0.00 0.00 0.00 0.00 0.00 0.00 0.00 0.00 0.00 0.00 0.00 0.00 0.00 0.00 0.00 0.00 0.00 0.00 0.00 0.00 0.00 0.00 0.00 0.00 0.01 0.01 0.01 0.01 0.03 0.05 0.06
0.14 0.11 0.09 0.10 0.16 0.09 0.06 0.13 0.16 0.08 0.04 0.00 0.00 0.00 0.00 0.00 0.00 0.00 0.00 0.00 0.00 0.00 0.00 0.00 0.00 0.00 0.00 0.00 0.00 0.00 0.00 0.00 0.00 0.00 0.01 0.01 0.01 0.01 0.08 0.09 0.07 0.09 0.09
0.08 0.17 0.13 0.08 0.16 0.16 0.05 0.07 0.01 0.01 0.03 0.01 0.00 0.00 0.00 0.00 0.00 0.00 0.00 0.00 0.00 0.00 0.00 0.00 0.00 0.00 0.00 0.00 0.00 0.00 0.00 0.00 0.00 0.01 0.01 0.02 0.03 0.05 0.03 0.04 0.06 0.09 0.12
0.10 0.08 0.09 0.05 0.09 0.15 0.04 0.01 0.03 0.04 0.03 0.02 0.01 0.00 0.00 0.00 0.00 0.00 0.00 0.00 0.00 0.00 0.00 0.00 0.00 0.00 0.00 0.00 0.00 0.00 0.00 0.01 0.03 0.08 0.09 0.08 0.06 0.04 0.02 0.02 0.02 0.02 0.03
0.14 0.11 0.08 0.03 0.02 0.05 0.10 0.08 0.06 0.05 0.04 0.04 0.01 0.01 0.03 0.00 0.00 0.00 0.00 0.00 0.00 0.00 0.00 0.00 0.00 0.00 0.00 0.00 0.01 0.01 0.00 0.02 0.09 0.08 0.07 0.04 0.03 0.01 0.00 0.01 0.01 0.01 0.01
0.03 0.08 0.09 0.06 0.03 0.04 0.07 0.06 0.03 0.02 0.02 0.03 0.01 0.03 0.03 0.00 0.02 0.05 0.05 0.03 0.03 0.03 0.09 0.02 0.01 0.01 0.01 0.01 0.01 0.01 0.02 0.03 0.02 0.01 0.01 0.01 0.00 0.00 0.00 0.01 0.02 0.02 0.02
0.03 0.03 0.07 0.06 0.06 0.04 0.02 0.01 0.03 0.05 0.05 0.03 0.09 0.08 0.07 0.02 0.12 0.13 0.14 0.10 0.13 0.20 0.19 0.03 0.01 0.01 0.00 0.00 0.00 0.01 0.01 0.02 0.01 0.01 0.01 0.00 0.00 0.00 0.01 0.01 0.01 0.02 0.02
0.11 0.07 0.05 0.08 0.16 0.15 0.10 0.05 0.03 0.07 0.07 0.05 0.11 0.15 0.19 0.22 0.13 0.18 0.33 0.28 0.11 0.20 0.13 0.06 0.02 0.01 0.00 0.00 0.01 0.00 0.00 0.00 0.01 0.01 0.01 0.01 0.01 0.01 0.01 0.00 0.01 0.02 0.02
0.10 0.14 0.09 0.11 0.22 0.27 0.21 0.10 0.10 0.10 0.06 0.03 0.04 0.03 0.05 0.13 0.27 0.34 0.34 0.26 0.12 0.19 0.08 0.17 0.06 0.05 0.04 0.04 0.03 0.03 0.01 0.01 0.00 0.00 0.01 0.01 0.00 0.01 0.01 0.02 0.03 0.05 0.10
0.23 0.15 0.18 0.31 0.48 0.50 0.56 0.41 0.19 0.09 0.12 0.09 0.15 0.16 0.20 0.18 0.23 0.23 0.16 0.10 0.13 0.15 0.26 0.23 0.23 0.35 0.35 0.28 0.31 0.23 0.17 0.14 0.16 0.10 0.11 0.11 0.17 0.23 0.22 0.19 0.18 0.19 0.18
0.41 0.45 0.35 0.31 0.44 0.48 0.57 0.78 0.69 0.49 0.43 0.24 0.23 0.20 0.28 0.27 0.21 0.21 0.20 0.27 0.22 0.50 0.75 0.72 0.67 0.70 0.79 0.72 0.87 0.90 0.79 0.80 0.79 0.74 0.60 0.50 0.49 0.41 0.34 0.32 0.31 0.26 0.23
0.61 0.52 0.55 0.40 0.38 0.43 0.46 0.50 0.51 0.49 0.44 0.37 0.47 0.46 0.51 0.52 0.18 0.14 0.21 0.25 0.25 0.45 0.89 1.18 1.49 1.89 2.00 2.01 1.91 1.86 1.64 1.62 1.42 1.29 1.27 1.36 1.29 1.04 0.90 0.76 0.62 0.56 0.52
0.21 0.55 0.80 1.01 0.56 0.49 0.47 0.35 0.42 0.47 0.45 0.45 0.42 0.56 0.76 0.64 0.32 0.28 0.23 0.22 0.20 0.18 0.29 0.37 0.52 0.59 0.66 0.87 0.78 0.48 0.45 0.58 0.73 0.69 0.70 0.80 0.95 1.16 1.36 1.33 1.14 0.94 0.78
0.14 0.24 0.33 0.66 1.13 1.05 1.18 1.12 0.93 0.55 0.47 0.48 0.60 0.50 0.32 0.29 0.26 0.25 0.25 0.26 0.26 0.23 0.23 0.21 0.20 0.17 0.10 0.11 0.10 0.06 0.07 0.09 0.08 0.10 0.09 0.10 0.14 0.20 0.26 0.24 0.23 0.21 0.24
0.05 0.37 0.70 0.49 0.35 0.33 0.36 0.89 1.67 1.93 1.60 1.34 1.03 0.99 0.97 0.67 0.50 0.47 0.46 0.35 0.28 0.23 0.21 0.17 0.14 0.15 0.15 0.17 0.15 0.12 0.10 0.09 0.05 0.05 0.08 0.09 0.11 0.13 0.11 0.08 0.06 0.04 0.03
0.04 0.09 0.32 0.79 0.89 0.66 0.61 0.60 0.50 0.55 0.73 0.97 1.13 1.05 1.06 1.01 0.89 0.76 0.63 0.54 0.45 0.35 0.29 0.25 0.26 0.27 0.25 0.18 0.16 0.15 0.11 0.08 0.06 0.10 0.10 0.08 0.07 0.08 0.11 0.09 0.06 0.04 0.02
0.07 0.10 0.12 0.17 0.35 0.50 0.48 0.53 0.90 0.95 0.74 0.56 0.56 0.66 0.87 0.94 0.86 0.77 0.76 0.78 0.73 0.68 0.66 0.61 0.60 0.53 0.47 0.44 0.39 0.34 0.26 0.20 0.17 0.16 0.12 0.12 0.13 0.10 0.07 0.06 0.07 0.08 0.07